Location: Unspecified
(0.0000°N, 0.0000°E)
Time: 18:52:47
(UTC+01:00)

ATLAS V CENTAUR R/B - Visible Passes

Search period start: 06 December 2016 00:00
Search period end: 16 December 2016 00:00
Orbit: 217 x 28359 km, 17.8° (Epoch: 05 December)

Date Brightness Start Highest point End Pass type
(mag) Time Alt. Az. Time Alt. Az. Time Alt. Az.
06 Dec 7.4 02:24:10 10° WSW 04:29:55 40° WSW 09:37:32 10° NE visible
06 Dec 4.9 18:08:38 10° WNW 18:12:55 74° NNE 18:45:30 10° ESE visible
07 Dec 7.0 03:15:24 10° WSW 05:07:47 30° WSW 10:16:58 10° NE visible
07 Dec 5.6 18:47:53 10° WNW 18:53:28 87° SSW 01:37:13 10° E visible
08 Dec 6.5 04:15:01 10° WSW 05:45:17 20° WSW 10:55:53 10° NE visible
08 Dec 6.4 19:26:56 10° W 19:34:24 76° SSW 02:34:42 10° E visible
09 Dec 6.4 05:59:56 10° WSW 06:22:08 10° WSW 06:47:30 10° WSW visible
09 Dec 7.1 20:05:48 10° W 20:15:59 69° S 03:23:15 10° E visible
10 Dec 7.7 20:44:31 10° W 20:58:46 66° S 04:07:36 10° E visible
11 Dec 8.4 21:23:09 10° W 21:43:47 64° S 04:49:28 10° E visible
12 Dec 8.5 22:01:43 10° W 22:33:46 64° S 05:29:39 10° ENE visible
13 Dec 8.7 22:40:21 10° WSW 05:04:49 83° SE 06:08:35 10° ENE visible
14 Dec 8.9 23:19:06 10° WSW 06:06:05 89° NNW 06:46:33 10° ENE visible
